Погода в Эмпуриабраве

Испания     42°15′00″N   3°07′03″E
темп.,
°C
ветер,
м/с
пор.,
м/с
влажн.,
%
обл.,
%
осадки,
мм/ч
давл.,
гПа
погр.,
м
20 января, ср
ср2001:00+3сз12850 0.0 101922
04:00+2з12820 0.0 101723
07:00+3юз248314 0.0 101581
10:00+9ююз61475100 0.0 1013532
13:00+14ююз9136196 0.0 10121013
16:00+13ююз7126197 0.0 1009745
19:00+10ююз7147699 0.0 1009441
22:00+10ююз71569100 0.0 1008610
21 января, чт
чт2101:00+10юз6147088 0.0 1008570
04:00+9юз5117867 0.0 1008288
07:00+6ссз228233 0.0 100924
10:00+9сз11670 0.0 101052
13:00+13ю225624 0.0 1009416
16:00+13вюв2371100 0.0 1007262
19:00+9ссз3380100 0.0 100841
22:00+9юз2379100 0.0 100826
22 января, пт
пт2201:00+7зюз2281100 0.0 100728
04:00+8зюз3884100 0.0 1006168
07:00+9юз61277100 0.0 1004359
10:00+12ююз5167559 0.0 10001354
13:00+14зюз9165747 1.1 9971062
16:00+13св566534 0.0 998771
19:00+9сз387456 0.6 1002294
22:00+8зсз3471100 0.3 1006123
23 января, сб
сб2301:00+5зсз128080 0.4 100722
04:00+6зсз118669 0.0 100523
07:00+4з238435 0.0 100529
10:00+6ссз22700 0.0 1006106
13:00+12ююв11480 0.0 1006492
16:00+11вюв465851 0.0 1006529
19:00+6сз237443 0.0 100829
22:00+5зсз117776 0.0 100722
24 января, вс
вс2401:00+5з117388 0.0 100422
04:00+7с3473100 0.0 1000152
07:00+6с61187100 0.4 1000670
10:00+7с81676100 0.5 1004958
13:00+10с8116055 0.5 1007703
16:00+11ссз475161 0.0 1008728
19:00+7сз127464 0.0 101127
22:00+6сз238288 1.0 101244